Time,TemperatureF,DewpointF,PressureIn,WindDirection,WindDirectionDegrees,WindSpeedMPH,WindSpeedGustMPH,Humidity,HourlyPrecipIn,Conditions,Clouds,dailyrainin,SoftwareType,DateUTC
2013-02-19 00:00:00,54.3,45.5,29.98,ESE,117,1.0,1.0,72,0.00,,,0.00,Wunderground v.1.15,2013-02-19 08:00:00,
2013-02-19 00:05:00,54.2,45.4,29.98,South,169,1.0,1.0,72,0.00,,,0.00,Wunderground v.1.15,2013-02-19 08:05:00,
2013-02-19 00:10:00,54.2,45.4,29.98,ESE,109,1.0,1.0,72,0.00,,,0.00,Wunderground v.1.15,2013-02-19 08:10:00,
2013-02-19 00:20:00,54.1,45.3,29.98,ESE,117,0.0,1.0,72,0.00,,,0.00,Wunderground v.1.15,2013-02-19 08:20:00,
2013-02-19 00:30:00,54.1,44.9,29.98,East,96,1.0,2.0,71,0.00,,,0.00,Wunderground v.1.15,2013-02-19 08:30:00,
2013-02-19 00:35:00,54.1,44.9,29.98,ESE,108,1.0,2.0,71,0.00,,,0.00,Wunderground v.1.15,2013-02-19 08:35:00,
2013-02-19 00:45:00,54.1,45.3,29.98,SE,137,0.0,0.0,72,0.00,,,0.00,Wunderground v.1.15,2013-02-19 08:45:00,
2013-02-19 00:50:00,54.1,45.3,29.98,ESE,117,0.0,3.0,72,0.00,,,0.00,Wunderground v.1.15,2013-02-19 08:50:00,
2013-02-19 00:55:00,54.1,45.3,29.99,ESE,123,0.0,0.0,72,0.00,,,0.00,Wunderground v.1.15,2013-02-19 08:55:00,
2013-02-19 01:00:00,54.1,45.3,29.99,ESE,123,0.0,2.0,72,0.00,,,0.00,Wunderground v.1.15,2013-02-19 09:00:00,
2013-02-19 01:05:00,54.1,44.9,29.99,ESE,121,0.0,2.0,71,0.00,,,0.00,Wunderground v.1.15,2013-02-19 09:05:00,
2013-02-19 01:20:00,54.1,43.8,29.98,ESE,116,0.0,0.0,68,0.00,,,0.00,Wunderground v.1.15,2013-02-19 09:20:00,
2013-02-19 01:25:00,54.1,43.4,29.97,East,96,0.0,0.0,67,0.00,,,0.00,Wunderground v.1.15,2013-02-19 09:25:00,
2013-02-19 01:35:00,54.1,44.5,29.97,ESE,105,1.0,1.0,70,0.00,,,0.00,Wunderground v.1.15,2013-02-19 09:35:00,
2013-02-19 01:45:00,54.1,44.5,29.96,East,80,2.0,2.0,70,0.00,,,0.00,Wunderground v.1.15,2013-02-19 09:45:00,
2013-02-19 01:55:00,54.0,44.4,29.96,SE,124,2.0,2.0,70,0.00,,,0.00,Wunderground v.1.15,2013-02-19 09:55:00,
2013-02-19 02:00:00,54.0,44.1,29.96,East,98,2.0,5.0,69,0.00,,,0.00,Wunderground v.1.15,2013-02-19 10:00:00,
2013-02-19 02:05:00,54.0,44.1,29.96,East,86,2.0,5.0,69,0.00,,,0.00,Wunderground v.1.15,2013-02-19 10:05:00,
2013-02-19 02:10:00,53.9,44.0,29.96,East,96,2.0,2.0,69,0.00,,,0.00,Wunderground v.1.15,2013-02-19 10:10:00,
2013-02-19 02:20:00,53.9,43.6,29.95,East,94,2.0,2.0,68,0.00,,,0.00,Wunderground v.1.15,2013-02-19 10:20:00,
2013-02-19 02:25:00,54.0,43.7,29.96,ESE,105,2.0,2.0,68,0.00,,,0.00,Wunderground v.1.15,2013-02-19 10:25:00,
2013-02-19 02:30:00,54.0,43.7,29.95,East,96,2.0,2.0,68,0.00,,,0.00,Wunderground v.1.15,2013-02-19 10:30:00,
2013-02-19 02:35:00,53.9,43.6,29.95,East,98,2.0,2.0,68,0.00,,,0.00,Wunderground v.1.15,2013-02-19 10:35:00,
2013-02-19 02:40:00,53.9,43.2,29.95,East,101,2.0,2.0,67,0.00,,,0.00,Wunderground v.1.15,2013-02-19 10:40:00,
2013-02-19 02:45:00,53.9,42.8,29.95,ESE,120,2.0,2.0,66,0.00,,,0.00,Wunderground v.1.15,2013-02-19 10:45:00,
2013-02-19 02:50:00,53.9,43.2,29.95,East,101,2.0,2.0,67,0.00,,,0.00,Wunderground v.1.15,2013-02-19 10:50:00,
2013-02-19 03:00:00,53.9,43.6,29.95,ESE,105,2.0,3.0,68,0.00,,,0.00,Wunderground v.1.15,2013-02-19 11:00:00,
2013-02-19 03:05:00,53.9,44.0,29.95,East,98,2.0,3.0,69,0.00,,,0.00,Wunderground v.1.15,2013-02-19 11:05:00,
2013-02-19 03:10:00,53.8,43.9,29.94,ESE,115,2.0,2.0,69,0.00,,,0.00,Wunderground v.1.15,2013-02-19 11:10:00,
2013-02-19 03:20:00,53.7,43.8,29.94,ESE,116,2.0,2.0,69,0.00,,,0.00,Wunderground v.1.15,2013-02-19 11:20:00,
2013-02-19 03:25:00,53.7,43.8,29.94,East,83,2.0,2.0,69,0.00,,,0.00,Wunderground v.1.15,2013-02-19 11:25:00,
2013-02-19 03:30:00,53.7,43.8,29.94,East,100,2.0,2.0,69,0.00,,,0.00,Wunderground v.1.15,2013-02-19 11:30:00,
2013-02-19 03:35:00,53.6,43.7,29.94,East,94,2.0,2.0,69,0.00,,,0.00,Wunderground v.1.15,2013-02-19 11:35:00,
2013-02-19 03:40:00,53.5,43.6,29.94,ESE,104,1.0,2.0,69,0.00,,,0.00,Wunderground v.1.15,2013-02-19 11:40:00,
2013-02-19 03:45:00,53.3,43.8,29.94,ESE,103,1.0,3.0,70,0.00,,,0.00,Wunderground v.1.15,2013-02-19 11:45:00,
2013-02-19 04:00:00,53.1,43.6,29.94,East,94,0.0,0.0,70,0.00,,,0.00,Wunderground v.1.15,2013-02-19 12:00:00,
2013-02-19 04:05:00,53.1,43.6,29.94,East,97,0.0,0.0,70,0.00,,,0.00,Wunderground v.1.15,2013-02-19 12:05:00,
2013-02-19 04:10:00,53.0,43.5,29.94,East,97,0.0,0.0,70,0.00,,,0.00,Wunderground v.1.15,2013-02-19 12:10:00,
2013-02-19 04:20:00,52.9,43.4,29.94,East,97,0.0,0.0,70,0.00,,,0.00,Wunderground v.1.15,2013-02-19 12:20:00,
2013-02-19 04:30:00,52.6,43.1,29.94,East,97,0.0,0.0,70,0.00,,,0.00,Wunderground v.1.15,2013-02-19 12:30:00,
2013-02-19 04:40:00,52.5,43.0,29.94,East,97,0.0,0.0,70,0.00,,,0.00,Wunderground v.1.15,2013-02-19 12:40:00,
2013-02-19 04:45:00,52.3,42.8,29.94,East,97,0.0,0.0,70,0.00,,,0.00,Wunderground v.1.15,2013-02-19 12:45:00,
2013-02-19 04:55:00,52.4,42.9,29.94,East,97,0.0,0.0,70,0.00,,,0.00,Wunderground v.1.15,2013-02-19 12:55:00,
2013-02-19 05:00:00,52.4,42.9,29.94,East,97,1.0,1.0,70,0.00,,,0.00,Wunderground v.1.15,2013-02-19 13:00:00,
2013-02-19 05:05:00,52.5,43.0,29.94,East,97,0.0,1.0,70,0.00,,,0.00,Wunderground v.1.15,2013-02-19 13:05:00,
2013-02-19 05:10:00,52.5,43.0,29.94,East,97,0.0,0.0,70,0.00,,,0.00,Wunderground v.1.15,2013-02-19 13:10:00,
2013-02-19 05:15:00,52.5,43.0,29.94,East,97,0.0,0.0,70,0.00,,,0.00,Wunderground v.1.15,2013-02-19 13:15:00,
2013-02-19 05:20:00,52.5,43.0,29.94,East,97,0.0,0.0,70,0.00,,,0.00,Wunderground v.1.15,2013-02-19 13:20:00,
2013-02-19 05:25:00,52.5,43.0,29.94,East,99,0.0,1.0,70,0.00,,,0.00,Wunderground v.1.15,2013-02-19 13:25:00,
2013-02-19 05:30:00,52.6,43.1,29.94,ESE,106,0.0,2.0,70,0.00,,,0.00,Wunderground v.1.15,2013-02-19 13:30:00,
2013-02-19 05:35:00,52.6,43.1,29.94,ESE,113,1.0,2.0,70,0.00,,,0.00,Wunderground v.1.15,2013-02-19 13:35:00,
2013-02-19 05:45:00,52.8,43.3,29.94,ESE,111,1.0,1.0,70,0.00,,,0.00,Wunderground v.1.15,2013-02-19 13:45:00,
2013-02-19 05:55:00,52.9,43.0,29.94,ESE,104,1.0,1.0,69,0.00,,,0.00,Wunderground v.1.15,2013-02-19 13:55:00,
2013-02-19 06:00:00,53.0,43.1,29.94,ESE,107,2.0,4.0,69,0.00,,,0.00,Wunderground v.1.15,2013-02-19 14:00:00,
2013-02-19 06:05:00,53.0,43.5,29.94,ESE,111,1.0,4.0,70,0.00,,,0.00,Wunderground v.1.15,2013-02-19 14:05:00,
2013-02-19 06:10:00,53.0,43.5,29.94,ESE,110,1.0,1.0,70,0.00,,,0.00,Wunderground v.1.15,2013-02-19 14:10:00,
2013-02-19 06:20:00,53.0,43.5,29.94,SSE,152,1.0,1.0,70,0.00,,,0.00,Wunderground v.1.15,2013-02-19 14:20:00,
2013-02-19 06:30:00,53.0,43.5,29.94,South,180,0.0,0.0,70,0.00,,,0.00,Wunderground v.1.15,2013-02-19 14:30:00,
2013-02-19 06:35:00,53.0,43.5,29.94,SE,136,1.0,1.0,70,0.00,,,0.00,Wunderground v.1.15,2013-02-19 14:35:00,
2013-02-19 06:45:00,53.0,43.8,29.94,SE,138,0.0,0.0,71,0.00,,,0.00,Wunderground v.1.15,2013-02-19 14:45:00,
2013-02-19 06:50:00,53.0,43.8,29.94,SSE,159,0.0,3.0,71,0.00,,,0.00,Wunderground v.1.15,2013-02-19 14:50:00,
2013-02-19 07:00:00,52.9,43.7,29.94,SE,142,0.0,0.0,71,0.00,,,0.00,Wunderground v.1.15,2013-02-19 15:00:00,
2013-02-19 07:05:00,52.9,43.7,29.94,ESE,103,1.0,1.0,71,0.00,,,0.00,Wunderground v.1.15,2013-02-19 15:05:00,
2013-02-19 07:10:00,53.0,43.8,29.94,ESE,107,1.0,1.0,71,0.00,,,0.00,Wunderground v.1.15,2013-02-19 15:10:00,
2013-02-19 07:15:00,53.0,43.8,29.94,ESE,103,0.0,3.0,71,0.00,,,0.00,Wunderground v.1.15,2013-02-19 15:15:00,
2013-02-19 07:20:00,53.0,43.5,29.94,East,98,1.0,2.0,70,0.00,,,0.00,Wunderground v.1.15,2013-02-19 15:20:00,
2013-02-19 07:25:00,53.1,43.6,29.94,ESE,113,1.0,2.0,70,0.00,,,0.00,Wunderground v.1.15,2013-02-19 15:25:00,
2013-02-19 07:30:00,53.1,43.2,29.94,SE,134,1.0,1.0,69,0.00,,,0.00,Wunderground v.1.15,2013-02-19 15:30:00,
2013-02-19 07:35:00,53.1,43.2,29.94,SE,126,1.0,2.0,69,0.00,,,0.00,Wunderground v.1.15,2013-02-19 15:35:00,
2013-02-19 07:40:00,53.1,43.2,29.94,ESE,120,1.0,2.0,69,0.00,,,0.00,Wunderground v.1.15,2013-02-19 15:40:00,
2013-02-19 07:46:00,53.1,42.8,29.94,SE,133,1.0,1.0,68,0.00,,,0.00,Wunderground v.1.15,2013-02-19 15:46:00,
2013-02-19 07:55:00,53.2,42.5,29.94,SSE,148,1.0,1.0,67,0.00,,,0.00,Wunderground v.1.15,2013-02-19 15:55:00,
2013-02-19 08:05:00,53.3,42.6,29.95,South,169,0.0,0.0,67,0.00,,,0.00,Wunderground v.1.15,2013-02-19 16:05:00,
2013-02-19 08:10:00,53.3,42.6,29.94,South,169,0.0,0.0,67,0.00,,,0.00,Wunderground v.1.15,2013-02-19 16:10:00,
2013-02-19 08:20:00,53.4,43.1,29.95,SSE,161,1.0,1.0,68,0.00,,,0.00,Wunderground v.1.15,2013-02-19 16:20:00,
2013-02-19 08:25:00,53.3,43.0,29.95,SSE,161,0.0,1.0,68,0.00,,,0.00,Wunderground v.1.15,2013-02-19 16:25:00,
2013-02-19 08:30:00,53.4,43.5,29.95,SE,143,0.0,0.0,69,0.00,,,0.00,Wunderground v.1.15,2013-02-19 16:30:00,
2013-02-19 08:50:00,53.5,44.0,29.94,SE,139,0.0,1.0,70,0.00,,,0.00,Wunderground v.1.15,2013-02-19 16:50:00,
2013-02-19 09:00:00,53.6,44.0,29.94,South,176,1.0,1.0,70,0.00,,,0.00,Wunderground v.1.15,2013-02-19 17:00:00,
2013-02-19 09:05:00,53.7,44.1,29.94,SSE,165,1.0,1.0,70,0.00,,,0.00,Wunderground v.1.15,2013-02-19 17:05:00,
2013-02-19 09:10:00,53.7,44.5,29.94,South,178,1.0,1.0,71,0.00,,,0.00,Wunderground v.1.15,2013-02-19 17:10:00,
2013-02-19 09:20:00,53.9,45.1,29.94,East,86,1.0,4.0,72,0.00,,,0.00,Wunderground v.1.15,2013-02-19 17:20:00,
2013-02-19 09:25:00,54.0,45.2,29.94,ESE,111,1.0,4.0,72,0.00,,,0.00,Wunderground v.1.15,2013-02-19 17:25:00,
2013-02-19 09:35:00,54.3,45.1,29.94,East,96,1.0,1.0,71,0.00,,,0.00,Wunderground v.1.15,2013-02-19 17:35:00,
2013-02-19 09:40:00,54.4,45.2,29.93,East,79,1.0,3.0,71,0.00,,,0.00,Wunderground v.1.15,2013-02-19 17:40:00,
2013-02-19 09:55:00,54.7,44.7,29.93,East,99,1.0,3.0,69,0.00,,,0.00,Wunderground v.1.15,2013-02-19 17:55:00,
2013-02-19 10:00:00,54.7,45.1,29.93,East,96,2.0,5.0,70,0.00,,,0.00,Wunderground v.1.15,2013-02-19 18:00:00,
2013-02-19 10:05:00,54.9,45.3,29.92,South,178,2.0,5.0,70,0.00,,,0.00,Wunderground v.1.15,2013-02-19 18:05:00,
2013-02-19 10:15:00,55.2,46.3,29.93,SE,139,2.0,2.0,72,0.00,,,0.00,Wunderground v.1.15,2013-02-19 18:15:00,
2013-02-19 10:30:00,55.7,47.2,29.92,ESE,117,1.0,1.0,73,0.00,,,0.00,Wunderground v.1.15,2013-02-19 18:30:00,
2013-02-19 10:40:00,55.7,47.9,29.92,ESE,123,1.0,1.0,75,0.00,,,0.00,Wunderground v.1.15,2013-02-19 18:40:00,
2013-02-19 10:45:00,55.7,47.5,29.92,South,175,1.0,1.0,74,0.00,,,0.00,Wunderground v.1.15,2013-02-19 18:45:00,
2013-02-19 10:50:00,55.9,47.7,29.92,East,94,1.0,1.0,74,0.00,,,0.00,Wunderground v.1.15,2013-02-19 18:50:00,
2013-02-19 10:55:00,56.2,48.4,29.92,South,187,1.0,1.0,75,0.00,,,0.00,Wunderground v.1.15,2013-02-19 18:55:00,
2013-02-19 11:00:00,56.2,48.7,29.92,South,182,1.0,1.0,76,0.00,,,0.00,Wunderground v.1.15,2013-02-19 19:00:00,
2013-02-19 11:05:00,56.0,48.2,29.92,South,184,1.0,1.0,75,0.00,,,0.00,Wunderground v.1.15,2013-02-19 19:05:00,
2013-02-19 11:10:00,56.0,48.5,29.92,SSW,192,2.0,2.0,76,0.00,,,0.00,Wunderground v.1.15,2013-02-19 19:10:00,
2013-02-19 11:20:00,56.7,48.5,29.91,WSW,244,2.0,2.0,74,0.00,,,0.00,Wunderground v.1.15,2013-02-19 19:20:00,
2013-02-19 11:25:00,57.0,48.1,29.91,SSW,196,3.0,3.0,72,0.00,,,0.00,Wunderground v.1.15,2013-02-19 19:25:00,
2013-02-19 11:40:00,56.5,48.3,29.91,SSW,213,5.0,7.0,74,0.00,,,0.00,Wunderground v.1.15,2013-02-19 19:40:00,
2013-02-19 11:45:00,56.2,48.7,29.90,WSW,240,5.0,7.0,76,0.00,,,0.00,Wunderground v.1.15,2013-02-19 19:45:00,
2013-02-19 11:55:00,55.7,47.5,29.90,WSW,237,4.0,7.0,74,0.00,,,0.00,Wunderground v.1.15,2013-02-19 19:55:00,
2013-02-19 12:00:00,55.5,47.3,29.89,SSW,213,4.0,4.0,74,0.00,,,0.00,Wunderground v.1.15,2013-02-19 20:00:00,
2013-02-19 12:06:00,55.5,47.3,29.89,SSW,199,4.0,4.0,74,0.00,,,0.00,Wunderground v.1.15,2013-02-19 20:06:00,
2013-02-19 12:10:00,55.4,47.2,29.89,WSW,238,4.0,4.0,74,0.00,,,0.00,Wunderground v.1.15,2013-02-19 20:10:00,
2013-02-19 12:25:00,55.4,47.6,29.88,SW,220,3.0,3.0,75,0.00,,,0.00,Wunderground v.1.15,2013-02-19 20:25:00,
2013-02-19 12:30:00,55.6,47.8,29.88,SSW,202,3.0,9.0,75,0.00,,,0.00,Wunderground v.1.15,2013-02-19 20:30:00,
2013-02-19 12:35:00,55.6,47.8,29.87,SW,219,3.0,6.0,75,0.00,,,0.00,Wunderground v.1.15,2013-02-19 20:35:00,
2013-02-19 12:40:00,55.6,47.4,29.87,SW,236,4.0,6.0,74,0.00,,,0.00,Wunderground v.1.15,2013-02-19 20:40:00,
2013-02-19 13:00:00,56.3,46.3,29.86,West,262,5.0,5.0,69,0.00,,,0.00,Wunderground v.1.15,2013-02-19 21:00:00,
2013-02-19 13:10:00,57.1,45.0,29.86,SW,236,5.0,5.0,64,0.00,,,0.00,Wunderground v.1.15,2013-02-19 21:10:00,
2013-02-19 13:20:00,56.9,45.7,29.86,South,190,5.0,6.0,66,0.00,,,0.00,Wunderground v.1.15,2013-02-19 21:20:00,
2013-02-19 13:30:00,56.8,44.7,29.86,West,259,5.0,10.0,64,0.00,,,0.00,Wunderground v.1.15,2013-02-19 21:30:00,
2013-02-19 13:40:00,56.8,43.9,29.85,WSW,238,6.0,7.0,62,0.00,,,0.00,Wunderground v.1.15,2013-02-19 21:40:00,
2013-02-19 13:50:00,57.0,43.7,29.85,South,190,7.0,7.0,61,0.00,,,0.00,Wunderground v.1.15,2013-02-19 21:50:00,
2013-02-19 13:55:00,57.1,43.8,29.85,SW,232,6.0,7.0,61,0.00,,,0.00,Wunderground v.1.15,2013-02-19 21:55:00,
2013-02-19 14:05:00,57.7,44.8,29.85,SSW,206,4.0,6.0,62,0.00,,,0.00,Wunderground v.1.15,2013-02-19 22:05:00,
2013-02-19 14:20:00,57.8,46.1,29.84,SW,218,6.0,10.0,65,0.00,,,0.00,Wunderground v.1.15,2013-02-19 22:20:00,
2013-02-19 14:30:00,58.6,46.9,29.84,SW,231,6.0,6.0,65,0.00,,,0.00,Wunderground v.1.15,2013-02-19 22:30:00,
2013-02-19 14:40:00,58.8,45.8,29.84,SW,218,7.0,7.0,62,0.00,,,0.00,Wunderground v.1.15,2013-02-19 22:40:00,
2013-02-19 14:45:00,58.9,45.5,29.84,SW,226,6.0,10.0,61,0.00,,,0.00,Wunderground v.1.15,2013-02-19 22:45:00,
2013-02-19 14:55:00,58.1,45.1,29.84,SSW,212,7.0,7.0,62,0.00,,,0.00,Wunderground v.1.15,2013-02-19 22:55:00,
2013-02-19 15:00:00,57.8,44.4,29.84,SW,226,7.0,7.0,61,0.00,,,0.00,Wunderground v.1.15,2013-02-19 23:00:00,
2013-02-19 15:10:00,57.0,42.8,29.83,South,188,8.0,8.0,59,0.00,,,0.00,Wunderground v.1.15,2013-02-19 23:10:00,
2013-02-19 15:15:00,56.8,43.1,29.83,SW,227,8.0,8.0,60,0.00,,,0.00,Wunderground v.1.15,2013-02-19 23:15:00,
2013-02-19 15:20:00,56.7,43.4,29.83,WSW,240,7.0,7.0,61,0.00,,,0.00,Wunderground v.1.15,2013-02-19 23:20:00,
2013-02-19 15:25:00,56.6,43.7,29.83,SW,232,6.0,7.0,62,0.00,,,0.00,Wunderground v.1.15,2013-02-19 23:25:00,
2013-02-19 15:30:00,56.6,42.9,29.82,SW,236,6.0,6.0,60,0.00,,,0.00,Wunderground v.1.15,2013-02-19 23:30:00,
2013-02-19 15:40:00,56.4,42.7,29.82,SW,214,4.0,4.0,60,0.00,,,0.00,Wunderground v.1.15,2013-02-19 23:40:00,
2013-02-19 15:45:00,56.3,42.6,29.82,SW,230,5.0,5.0,60,0.00,,,0.00,Wunderground v.1.15,2013-02-19 23:45:00,
2013-02-19 15:50:00,56.3,42.6,29.82,SW,226,4.0,6.0,60,0.00,,,0.00,Wunderground v.1.15,2013-02-19 23:50:00,
2013-02-19 15:55:00,56.0,42.7,29.82,SW,230,5.0,9.0,61,0.00,,,0.00,Wunderground v.1.15,2013-02-19 23:55:00,
2013-02-19 16:05:00,55.7,43.3,29.82,SSW,211,6.0,7.0,63,0.00,,,0.00,Wunderground v.1.15,2013-02-20 00:05:00,
2013-02-19 16:10:00,55.6,43.2,29.81,SW,229,5.0,7.0,63,0.00,,,0.00,Wunderground v.1.15,2013-02-20 00:10:00,
2013-02-19 16:25:00,55.3,43.7,29.80,SSW,210,6.0,6.0,65,0.00,,,0.00,Wunderground v.1.15,2013-02-20 00:25:00,
2013-02-19 16:35:00,55.0,43.8,29.80,WSW,242,4.0,4.0,66,0.00,,,0.00,Wunderground v.1.15,2013-02-20 00:35:00,
2013-02-19 16:55:00,54.5,43.4,29.80,SW,216,5.0,5.0,66,0.00,,,0.00,Wunderground v.1.15,2013-02-20 00:55:00,
2013-02-19 17:00:00,54.4,43.3,29.80,WSW,254,5.0,5.0,66,0.00,,,0.00,Wunderground v.1.15,2013-02-20 01:00:00,
2013-02-19 17:05:00,54.2,43.1,29.80,WSW,242,6.0,9.0,66,0.00,,,0.00,Wunderground v.1.15,2013-02-20 01:05:00,
2013-02-19 17:10:00,54.1,43.4,29.80,SW,232,6.0,6.0,67,0.00,,,0.00,Wunderground v.1.15,2013-02-20 01:10:00,
2013-02-19 17:20:00,53.9,43.2,29.80,SW,229,5.0,5.0,67,0.00,,,0.00,Wunderground v.1.15,2013-02-20 01:20:00,
2013-02-19 17:25:00,53.9,43.2,29.79,SW,234,5.0,5.0,67,0.00,,,0.00,Wunderground v.1.15,2013-02-20 01:25:00,
2013-02-19 17:30:00,53.7,43.0,29.79,SW,219,5.0,5.0,67,0.00,,,0.00,Wunderground v.1.15,2013-02-20 01:30:00,
2013-02-19 17:40:00,53.7,43.8,29.80,SW,215,4.0,4.0,69,0.00,,,0.00,Wunderground v.1.15,2013-02-20 01:40:00,
2013-02-19 17:45:00,53.7,43.8,29.79,SW,228,4.0,4.0,69,0.00,,,0.00,Wunderground v.1.15,2013-02-20 01:45:00,
2013-02-19 17:50:00,53.7,43.8,29.79,West,261,2.0,2.0,69,0.00,,,0.00,Wunderground v.1.15,2013-02-20 01:50:00,
2013-02-19 17:55:00,53.7,43.0,29.79,West,277,3.0,3.0,67,0.00,,,0.00,Wunderground v.1.15,2013-02-20 01:55:00,
2013-02-19 18:10:00,53.6,42.9,29.79,West,269,3.0,10.0,67,0.00,,,0.00,Wunderground v.1.15,2013-02-20 02:10:00,
2013-02-19 18:20:00,53.6,43.7,29.79,WNW,290,4.0,6.0,69,0.00,,,0.00,Wunderground v.1.15,2013-02-20 02:20:00,
2013-02-19 18:25:00,53.5,44.0,29.79,WSW,258,4.0,11.0,70,0.00,,,0.00,Wunderground v.1.15,2013-02-20 02:25:00,
2013-02-19 18:40:00,53.5,44.0,29.79,SW,235,5.0,9.0,70,0.00,,,0.00,Wunderground v.1.15,2013-02-20 02:40:00,
2013-02-19 18:45:00,53.4,44.2,29.79,WSW,250,5.0,9.0,71,0.00,,,0.00,Wunderground v.1.15,2013-02-20 02:45:00,
2013-02-19 18:55:00,53.3,44.1,29.78,SW,230,5.0,5.0,71,0.00,,,0.00,Wunderground v.1.15,2013-02-20 02:55:00,
2013-02-19 19:10:00,52.8,46.5,29.79,West,271,6.0,6.0,79,0.00,,,0.00,Wunderground v.1.15,2013-02-20 03:10:00,
2013-02-19 19:25:00,51.9,46.3,29.78,SW,223,2.0,14.0,81,0.00,,,0.00,Wunderground v.1.15,2013-02-20 03:25:00,
2013-02-19 19:30:00,51.8,45.8,29.77,WSW,256,4.0,14.0,80,0.00,,,0.00,Wunderground v.1.15,2013-02-20 03:30:00,
2013-02-19 22:20:00,48.5,45.4,29.73,West,268,1.0,1.0,89,0.00,,,0.28,Wunderground v.1.15,2013-02-20 06:20:00,
2013-02-19 22:25:00,48.5,45.4,29.73,West,263,1.0,3.0,89,0.00,,,0.28,Wunderground v.1.15,2013-02-20 06:25:00,
2013-02-19 22:30:00,48.6,45.5,29.73,West,263,1.0,1.0,89,0.00,,,0.28,Wunderground v.1.15,2013-02-20 06:30:00,
2013-02-19 22:40:00,48.7,45.6,29.72,SW,232,1.0,2.0,89,0.00,,,0.28,Wunderground v.1.15,2013-02-20 06:40:00,
2013-02-19 22:45:00,48.8,45.4,29.72,WSW,255,2.0,2.0,88,0.00,,,0.28,Wunderground v.1.15,2013-02-20 06:45:00,
2013-02-19 22:50:00,48.8,45.4,29.72,WSW,255,1.0,2.0,88,0.00,,,0.28,Wunderground v.1.15,2013-02-20 06:50:00,
2013-02-19 22:55:00,48.8,45.4,29.72,West,278,1.0,9.0,88,0.00,,,0.28,Wunderground v.1.15,2013-02-20 06:55:00,
2013-02-19 23:05:00,48.9,44.6,29.72,West,264,5.0,6.0,85,0.00,,,0.28,Wunderground v.1.15,2013-02-20 07:05:00,
2013-02-19 23:10:00,49.0,44.4,29.71,West,267,5.0,7.0,84,0.00,,,0.28,Wunderground v.1.15,2013-02-20 07:10:00,
2013-02-19 23:20:00,49.1,43.8,29.71,West,266,5.0,5.0,82,0.00,,,0.28,Wunderground v.1.15,2013-02-20 07:20:00,
2013-02-19 23:25:00,49.1,43.5,29.71,West,265,5.0,8.0,81,0.00,,,0.28,Wunderground v.1.15,2013-02-20 07:25:00,
2013-02-19 23:35:00,49.4,42.8,29.71,West,273,7.0,9.0,78,0.00,,,0.28,Wunderground v.1.15,2013-02-20 07:35:00,
2013-02-19 23:45:00,49.4,42.1,29.71,West,267,7.0,13.0,76,0.00,,,0.28,Wunderground v.1.15,2013-02-20 07:45:00,
2013-02-19 23:50:00,49.5,41.9,29.72,NW,315,7.0,13.0,75,0.00,,,0.28,Wunderground v.1.15,2013-02-20 07:50:00,
2013-02-19 23:55:00,49.5,42.2,29.72,WNW,295,6.0,6.0,76,0.00,,,0.28,Wunderground v.1.15,2013-02-20 07:55:00,